Regional Weather Roundup
Issued by NWS Charleston, SC

Current Version | Previous Version | Graphics & Text | Print | Product List | Glossary On
Versions: 1 2 3 4 5 6 7 8 9 10 11 12 13 14 15 16 17 18 19 20 21 22 23 24 25 26 27 28 29 30 31 32 33 34 35 36 37 38 39 40 41 42 43 44 45 46 47 48 49 50
176 ASUS42 KCHS 221912 RWRCHS REGIONAL WEATHER ROUNDUP NATIONAL WEATHER SERVICE CHARLESTON SC 300 PM EDT THU JUN 22 2017 NOTE: "FAIR" INDICATES FEW OR NO CLOUDS BELOW 12,000 FEET WITH NO SIGNIFICANT WEATHER AND/OR OBSTRUCTIONS TO VISIBILITY. NOT ALL STATIONS ARE QUALITY CONTROLLED. USE DATA WITH CAUTION... ESPECIALLY DEWPOINT OBSERVATIONS. SCZ027-030-031-034>040-042>050-222000- ...SOUTHEAST SOUTH CAROLINA... CITY SKY/WX TMP DP RH WIND PRES REMARKS N CHARLESTON CLOUDY 87 75 67 S10 30.07F HX 96 WATERFRONT PRK N/A 84 78 82 S9 30.07F HX 95 JOHNS ISLAND MOCLDY 86 79 79 S12 30.08S HX 99 PINOPOLIS N/A 84 79 84 CALM 30.01F HX 96 MONCKS CORNER MOCLDY 86 75 70 NE5 30.06F HX 95 SUMMERVILLE FAIR 88 73 62 SE3 30.07F HX 96 BEAUFORT MCAS PTSUNNY 86 80 82 S8 30.07S THUNDER HX 101 BEAUFORT ARPT DRIZZLE 82 77 83 S13 30.06F HX 91 HILTON HEAD IS PTSUNNY 86 79 79 S12 30.09S HX 99 WALTERBORO MOCLDY 88 75 66 E7 30.06F HX 97 ALLENDALE FAIR 77 75 94 CALM 30.06F ...SOUTHERN MIDLANDS AND PEE DEE... CITY SKY/WX TMP DP RH WIND PRES REMARKS GEORGETOWN RAIN 77 75 94 CALM 30.10F KINGSTREE FAIR 82 73 74 NW3 30.07F ORANGEBURG PTSUNNY 86 75 69 E5 30.07F HX 95 BARNWELL CLOUDY 90 77 66 VRB6 30.06F HX 102 AIKEN MOCLDY 84 73 70 E5 30.10F HX 91 MANNING FAIR 86 79 79 N7G16 30.07F HX 99 COLUMBIA PTSUNNY 86 73 65 NE6 30.06F HX 93 SUMTER CLOUDY 86 73 66 N5 30.06F HX 93 FLORENCE CLOUDY 86 76 71 N8 30.08F HX 96 MYRTLE BEACH NOT AVBL N MYRTLE BEACH LGT RAIN 81 77 88 S5 30.10S $$ GAZ063-065-086>088-099>101-113>116-118-119-134>141-150-222000- ...SOUTHEAST GEORGIA... CITY SKY/WX TMP DP RH WIND PRES REMARKS SAVANNAH ARPT CLOUDY 88 76 67 S10 30.05F HX 99 HUNTER AAF PTSUNNY 88 79 74 SE10 30.04S HX 102 FORT STEWART PTSUNNY 89 73 58 SW3 30.03F HX 97 STATESBORO CLOUDY 89 76 66 S6 30.06F HX 99 SYLVANIA MOCLDY 89 78 70 CALM 30.07F HX 102 CLAXTON FAIR N/A N/A N/A CALM 30.06F ...CSRA...CENTRAL AND FAR SOUTHEAST GEORGIA... CITY SKY/WX TMP DP RH WIND PRES REMARKS THOMSON CLOUDY 84 74 72 SE6 30.12S HAZE HX 91 AUGUSTA-BUSH CLOUDY 90 75 61 SE7 30.04F HX 100 AUGUSTA-DANIEL CLOUDY 88 71 57 E7 30.07F HX 94 SWAINSBORO FAIR 88 75 66 E5 30.07F HX 97 VIDALIA CLOUDY 88 75 66 CALM 30.07F HX 97 EASTMAN FAIR 92 61 36 S7 30.07F HX 92 HAZLEHURST MOCLDY 90 78 69 E3 30.05F HX 104 ALMA MOSUNNY 91 73 55 VRB3 30.05F HX 99 WAYCROSS CLOUDY 92 77 61 CALM 30.05S HX 107 JESUP FAIR 91 70 49 SW3 30.05F HX 97 BAXLEY FAIR 90 81 74 E6 30.05F HX 108 BRUNSWICK MOSUNNY 90 79 70 S8 30.06S HX 105 SAINT SIMONS MOSUNNY 88 78 72 SE14 30.06F HX 101 $$ SCZ027-028-034-036>038-045-046-048>050-GAZ119-141-222000- ...LAKE AND SUPPLEMENTAL COASTAL OBSERVATIONS... STATION/POSITION TIME TEMP WIND PRES WAVE SWELL AIR SEA DIR/SP/G HT/PER HT/PER/DIR (UTC) (F) (DEG/KT/KT) (MB) (FT/S) (FT/S/D) WINYAH BAY 1745 83 250/ 5 1019.0 LAKE MURRAY 1820 80 20/ 2/ 6 1017.9 ACE BASIN NERRS NOT AVBL FORT PULASKI 1848 84 84 170/ 5/ 11 1018.6S SAPELO ISLAND 1800 90 150/ 9 1018.0 $$ ANZ835-935-AMZ111-154-330-350-352-354-370-450-454-472-222000- ...C-MAN AND BUOY OBSERVATIONS... STATION/POSITION TIME TEMP WIND PRES WAVE SWELL AIR SEA DIR/SP/G HT/PER HT/PER/DIR (UTC) (F) (DEG/KT/KT) (MB) (FT/S) (FT/S/D) BUOY 41004 1850 82 82 190/ 8/ 10 1018.8F 3/ 7 3/150/ 7 BUOY 41008 1750 81 82 170/ 12/ 14 1018.5 3/ 7 3/100/ 7 FOLLY BEACH CMAN 1800 83 200/ 9/ 11 1019.7F CAPERS NEARSHORE 1808 86 83 210/ 10/ 14 1018.8F FRIPP NEARSHORE 1808 82 84 190/ 10/ 14 1018.5F STATION/POSITION TIME TEMP WIND PRES WAVE SWELL AIR SEA DIR/SP/G HT/PER HT/PER/DIR (UTC) (F) (DEG/KT/KT) (MB) (FT/S) (FT/S/D) 5E ST. MARYS GA 1830 82 N/A 3/ 8 FRYING PAN BUOY 1850 81 81 230/ 4/ 6 1019.0F 3/ 8 3/150/ 8 BUOY 41025 1850 80 80 230/ 10/ 12 1018.6F 2/ 7 2/180/ 7 CAPE LOOKOUT NC 1800 81 210/ 8/ 11 1018.4F BUOY 41002 1750 81 82 210/ 12/ 14 1020.7 5/ 8 5/110/ 8 BUOY 41010 1850 82 83 130/ 8/ 12 1019.5F 5/ 8 5/140/ 8 ST AUGUSTINE FL 1900 79 81 140/ 13/ 13 1018.7F $$

USA.gov is the U.S. government's official web portal to all federal, state and local government web resources and services.